Terug naar catalogus

KUIPER-00551

ActiefCommunicatieVLEO
NORAD 69618·PAYLOAD·🇺🇸 United States

Gelanceerd Jun 17, 2026 vanaf Guiana Space Centre

Loading…

Volgende Passages (komende 24 uur)

TLE

VersSource: CelesTrak SupGP

Epoch: Sep 14, 2026, 23:22 UTC

1 69618C 26140AC  26257.97409722  .00002974  00000+0  77021-4 0  2574
2 69618  51.8777 323.9378 0011809 130.3469 276.9768 15.38365075    16

Volg KUIPER-00551 in realtime met AllMySat

Download on the App Store